Location: Corte Bragagnani
(45.3000°N, 11.1000°E)
Time: 08:31:37
(UTC+00:00)

STARLINK-1212 - Pass Details

Date: 09 April 2020
Orbit: 377 x 382 km, 53.0° (Epoch: 02 June)

Event Time Altitude Azimuth Distance (km) Brightness Sun altitude
Rises 19:40:53 0° 300° (WNW) 2,268 8.5 -18.1°
Reaches altitude 10° 19:42:57 10° 297° (WNW) 1,411 7.0 -18.4°
Maximum altitude 19:46:04 61° 216° (SW) 442 3.1 -18.9°
Enters shadow 19:46:11 60° 204° (SSW) 444 3.0 -18.9°
